Regional Weather Roundup
Issued by NWS

Home | Current Version | Previous Version | Text Only | Print | Product List | Glossary Off
Versions: 1 2 3 4 5 6 7 8 9 10 11 12 13 14 15 16 17 18 19 20 21 22 23 24 25 26 27 28 29 30 31 32 33 34 35 36 37 38 39 40 41 42 43 44 45 46 47 48 49 50

000
ASUS43 KIND 280909
RWRIN

WEATHER ROUNDUP FOR INDIANA
NATIONAL WEATHER SERVICE INDIANAPOLIS IN
400 AM EST SUN DEC 28 2014

NOTE: "FAIR" INDICATES FEW OR NO CLOUDS BELOW 12,000 FEET WITH NO
SIGNIFICANT WEATHER AND/OR OBSTRUCTIONS TO VISIBILITY.

* - STATION DOES NOT REPORT WEATHER SUCH AS PRECIPITATION OR FOG.

+ - STATION NOT QUALITY CONTROLLED BY THE NATIONAL WEATHER SERVICE.
    USE DATA WITH CAUTION...ESPECIALLY DEWPOINT AND RELATIVE
    HUMIDITY OBSERVATIONS.

INZ001>003-010>013-019-020-281000-
NORTHWEST INDIANA

CITY           SKY/WX    TMP DP  RH WIND       PRES   REMARKS
GARY /AIRPORT/ CLOUDY    32  22  67 W9        30.12F WCI  24
KNOX *+        CLOUDY    32  26  76 NW9       30.10S WCI  24
LA PORTE +     CLOUDY    34  28  79 NW7       30.10S WCI  28
MICHIGAN CITY+ CLOUDY    32  23  69 W8        30.10F WCI  25
MONTICELLO +   CLOUDY    31  28  86 NW9       30.12S WCI  23
RENSSELAER +   CLOUDY    32  30  93 NW8G16    30.13S WCI  25
VALPARAISO     CLOUDY    30  25  81 W10       30.11S WCI  21

$$

LMZ046-743>745-281000-
SOUTHERN LAKE MICHIGAN

STATION/POSITION TIME  TEMP WIND        PRES
                       AIR  DIR/SP/G
                 (UTC) (F)  (DEG/KT/KT) (MB)
MICHIGAN CITY    0900   32  260/ 14/ 17   N/A

$$

INZ004-005-014>016-021>024-281000-
NORTH CENTRAL INDIANA

CITY           SKY/WX    TMP DP  RH WIND       PRES   REMARKS
GOSHEN         CLOUDY    34  28  79 NW7       30.06F WCI  28
LOGANSPORT +   CLOUDY    32  28  86 NW7       30.11S WCI  26
PERU/GRISSOM   CLOUDY    32  32 100 NW10      30.09S WCI  24
ROCHESTER +    CLOUDY    34  32  93 W6        30.09F WCI  29
SOUTH BEND     CLOUDY    35  27  72 NW7       30.08  WCI  29
WARSAW +       CLOUDY    32  30  93 W7        30.07F WCI  26

$$

INZ006>009-017-018-025>027-281000-
NORTHEAST INDIANA

CITY           SKY/WX    TMP DP  RH WIND       PRES   REMARKS
ANGOLA *+      CLOUDY    34  28  80 NW6       30.04F WCI  29
AUBURN +       CLOUDY    34  30  86 NW7       30.07S WCI  28
FORT WAYNE     CLOUDY    34  29  82 NW6       30.07F WCI  29
HUNTINGTON +   CLOUDY    32  26  79 NW5       30.07F WCI  28

$$

INZ028-029-035-036-043>045-051>053-281000-
WEST CENTRAL INDIANA

CITY           SKY/WX    TMP DP  RH WIND       PRES   REMARKS
GREENCASTLE +  CLOUDY    32  25  74 NW7       30.14R WCI  26
LAFAYETTE      CLOUDY    31  26  82 NW10      30.14R WCI  22
TERRE HAUTE    CLOUDY    32  26  78 NW12      30.16R WCI  23

$$

INZ030>032-037>040-046>048-054>057-064-065-281000-
CENTRAL INDIANA

CITY           SKY/WX    TMP DP  RH WIND       PRES   REMARKS
CP ATTERBURY + CLOUDY    34  32  93 MISG      30.12R FOG
FRANKFORT +    CLOUDY    32  32 100 W9        30.13R WCI  24
INDIANAPOLIS   CLOUDY    30  27  88 NW14      30.11S WCI  19
-EAGLE CREEK   CLOUDY    31  27  85 NW12      30.11R WCI  22
KOKOMO *+      CLOUDY    32  27  80 NW8       30.10R WCI  25
MARION +       CLOUDY    32  28  85 NW9       30.10S WCI  24
MT COMFORT *+  CLOUDY    32  32 100 NW10      30.11R WCI  24
SHELBYVILLE    CLOUDY    35  31  85 NW10      30.10S WCI  27
ZIONSVILLE +   CLOUDY    32  27  81 NW9       30.12R WCI  24

$$

INZ033-034-041-042-049-050-058-059-281000-
EAST CENTRAL INDIANA

CITY           SKY/WX    TMP DP  RH WIND       PRES   REMARKS
MUNCIE         CLOUDY    33  29  85 NW12      30.09R WCI  24

$$

INZ060-061-067>069-081>083-085>088-281000-
SOUTHWEST INDIANA

CITY           SKY/WX    TMP DP  RH WIND       PRES   REMARKS
EVANSVILLE     CLOUDY    37  34  89 N9        30.17S FOG
HUNTINGBURG *+ CLOUDY    36  34  93 N9        30.16R
WASHINGTON +   CLOUDY    35  31  88 NW7       30.16R WCI  29

$$

INZ062-063-066-070>080-084-089>092-281000-
SOUTH CENTRAL AND SOUTHEAST INDIANA

CITY           SKY/WX    TMP DP  RH WIND       PRES   REMARKS
BLOOMINGTON    CLOUDY    34  32  92 W8        30.12R WCI  27

$$



USA.gov is the U.S. government's official web portal to all federal, state and local government web resources and services.